Presure
205 199 206 191 191 209 210 212 206 202 201 204 210 139 186 207 222 203 198 178 206 173 181 190 203 205 183 169 144 148 168 138 141 168 168 183 177 177 161 165 161 158 169 167 176
179 187 205 103 196 178 194 190 198 214 212 220 222 219 231 231 205 193 224 179 160 183 189 201 184 204 210 202 189 159 146 130 163 156 137 158 183 181 177 176 174 177 173 174 162
203 194 175 204 169 198 204 203 200 217 218 225 247 271 245 224 252 255 248 233 176 151 216 126 204 193 193 165 164 184 183 159 142 153 161 156 149 178 181 177 148 178 171 169 152
186 189 189 204 167 204 195 208 218 235 240 256 295 293 342 280 282 156 274 241 242 249 234 221 240 223 205 179 185 210 142 198 189 151 144 160 168 153 173 185 183 142 169 177 148
200 193 198 198 163 209 212 184 228 253 257 276 288 305 280 293 275 272 294 299 240 246 248 248 213 219 211 175 193 144 207 207 201 168 181 144 161 156 163 153 178 184 186 178 178
202 205 189 215 211 211 230 259 249 264 266 323 292 302 275 282 286 286 285 301 288 312 256 253 237 241 196 132 241 193 186 196 207 212 199 184 147 160 168 168 151 164 180 186 188
211 215 216 225 231 254 257 331 293 270 294 295 258 255 275 273 288 281 278 278 260 276 247 263 235 237 248 217 227 203 214 186 196 201 188 213 204 141 158 156 175 177 153 168 191
214 206 225 249 248 263 278 271 284 276 293 299 289 292 300 310 303 289 277 283 275 283 265 274 203 262 234 217 220 249 231 207 227 197 194 170 207 203 191 170 132 136 146 151 156
223 226 238 224 271 249 282 330 254 292 297 301 318 336 376 427 435 410 378 302 276 269 263 261 323 366 337 234 221 219 220 233 217 220 207 213 195 204 191 208 194 134 176 132 137
240 234 253 277 270 281 315 255 305 291 309 323 412 432 403 411 422 383 373 394 350 308 274 266 268 255 359 278 236 213 246 213 227 218 224 204 203 226 200 210 210 204 132 145 136
234 227 284 260 308 255 281 322 319 303 406 403 406 400 372 414 411 439 357 366 374 333 358 272 271 248 289 340 334 329 223 206 191 235 232 255 209 215 196 220 204 209 192 137 167
233 254 275 250 289 276 314 308 314 338 263 377 363 349 410 350 373 440 325 349 372 357 385 392 259 264 258 254 335 347 328 243 219 255 226 229 230 226 219 224 220 213 209 213 163
242 260 261 266 256 283 316 334 333 386 361 359 422 412 393 318 339 450 326 339 353 353 345 380 369 263 255 257 235 355 248 319 319 270 219 227 224 209 215 220 231 213 224 213 217
243 258 277 234 271 289 334 337 376 367 378 400 315 360 365 275 277 309 398 310 353 353 357 376 368 356 306 259 247 243 240 333 249 317 210 218 235 225 252 222 232 228 229 221 217
242 251 259 258 293 298 345 326 383 396 317 398 382 363 360 343 340 445 283 321 314 331 337 359 360 350 336 307 250 256 251 354 242 310 296 281 246 218 242 257 231 236 235 228 225
235 241 277 261 275 293 327 397 341 369 349 364 364 353 349 337 327 330 377 326 300 331 328 330 360 354 341 297 289 254 244 246 237 335 317 234 235 254 253 263 247 251 242 239 240
258 239 256 270 275 285 350 411 388 365 359 347 349 344 339 333 323 323 350 336 317 324 316 317 348 347 347 348 288 272 257 249 279 331 342 335 269 221 217 229 242 256 249 238 262
239 249 249 266 293 297 346 395 375 353 356 343 336 331 320 312 315 306 318 348 317 278 294 303 334 334 337 333 339 287 264 263 242 237 250 332 262 339 329 273 329 336 265 269 264
239 242 253 257 267 304 364 364 348 340 345 335 329 312 306 386 386 368 315 336 334 297 267 278 319 328 326 330 325 330 322 297 284 291 246 242 236 258 326 334 332 339 346 249 212
239 235 258 277 271 306 373 362 336 334 348 333 319 306 364 358 359 369 310 312 333 307 292 293 307 313 320 321 326 328 322 327 312 319 304 274 255 241 252 316 317 278 315 275 278
236 267 253 210 330 305 381 356 347 332 328 333 311 399 357 337 362 385 313 307 328 307 296 276 261 309 307 312 315 323 323 324 319 331 306 295 321 319 302 257 254 255 254 254 270
256 246 289 278 329 303 379 358 351 346 324 334 306 382 346 349 346 334 332 301 310 323 303 281 266 258 299 296 297 296 313 314 314 312 318 320 318 316 319 323 334 323 263 296 349
248 234 256 287 317 339 365 352 350 363 323 336 335 364 349 340 334 327 332 311 293 305 325 298 284 264 266 290 285 297 298 300 304 307 306 309 310 318 321 328 331 330 330 323 325
256 234 258 320 313 332 337 355 351 363 317 323 369 355 335 336 324 317 328 332 307 302 303 313 310 287 273 261 263 264 306 306 303 303 303 303 309 319 322 324 325 322 316 323 335
257 234 279 338 296 360 324 431 406 365 317 317 365 367 331 335 327 314 318 319 332 316 299 294 302 315 301 288 274 250 301 303 302 306 307 311 314 316 318 306 310 313 320 320 323
262 268 309 327 289 340 364 387 408 338 325 327 365 351 341 322 328 324 307 308 326 329 307 297 299 306 305 300 293 289 298 300 299 294 295 312 309 303 291 303 315 341 339 306 323
256 285 330 312 359 474 434 420 390 321 323 380 364 356 356 326 331 323 313 306 309 307 301 315 293 319 314 305 294 283 292 266 270 276 284 301 296 284 295 300 320 334 314 325 345
Wind_Speed
63 63 63 68 69 70 74 79 81 81 81 81 83 70 82 87 89 92 96 89 97 86 86 91 91 90 90 82 71 71 73 68 69 72 66 70 68 69 67 66 64 62 60 54 53
68 68 70 45 74 76 82 85 80 85 87 85 87 87 94 95 90 85 96 85 84 92 97 101 91 95 91 93 90 77 73 70 77 69 58 61 72 71 71 71 71 68 63 59 60
72 71 75 78 75 83 86 87 88 92 89 88 96 103 90 92 89 85 92 98 89 83 104 65 100 96 95 83 80 90 91 82 70 69 68 64 63 72 73 74 62 70 64 62 64
73 75 77 82 69 88 86 94 97 103 103 107 107 95 88 73 70 39 90 101 96 89 92 101 90 99 102 89 89 94 77 98 93 74 66 69 71 67 71 77 78 59 67 68 64
80 80 83 86 69 94 97 87 101 105 101 103 98 92 79 76 75 85 80 96 98 94 91 90 104 96 106 86 99 78 99 98 98 82 88 68 70 69 69 66 74 77 77 72 70
87 89 86 98 94 96 105 110 103 103 98 81 83 80 76 72 78 76 71 72 89 96 94 92 97 95 100 72 93 99 97 99 102 100 96 90 69 67 77 71 68 68 74 77 76
93 97 99 104 108 110 104 85 85 85 78 78 81 79 77 78 74 75 72 73 77 85 94 93 97 99 94 98 104 103 101 94 98 99 90 98 95 75 73 70 74 73 65 68 81
94 95 106 106 106 101 86 86 78 82 74 72 79 77 70 69 69 73 74 74 75 78 83 91 95 99 100 106 106 93 105 108 105 101 96 81 95 98 93 75 67 66 63 66 64
98 103 103 99 97 97 85 75 85 75 72 71 69 66 61 56 50 53 59 73 76 75 78 81 78 81 94 103 108 105 106 105 112 109 106 107 94 100 91 96 92 68 77 64 64
97 97 96 96 92 88 78 80 73 72 71 73 60 53 52 51 43 47 50 53 61 72 78 77 78 80 77 88 103 112 103 111 111 111 109 100 102 106 98 102 100 95 66 72 67
91 97 101 91 89 86 77 73 70 71 52 54 53 47 48 44 34 33 45 51 54 58 56 78 76 70 74 77 83 89 109 96 86 108 108 96 108 108 93 107 100 98 90 71 77
87 97 101 90 89 83 83 76 74 67 62 49 51 50 35 39 32 27 41 45 48 51 44 48 72 77 78 78 76 79 84 94 113 101 110 107 102 110 108 107 110 106 100 99 83
92 103 96 93 87 88 84 78 73 58 53 48 35 25 28 35 30 20 36 39 44 50 52 46 54 75 74 70 66 67 81 80 86 101 103 103 111 99 111 107 111 105 112 104 105
96 107 103 83 90 92 81 76 64 58 47 37 41 29 26 38 38 34 34 36 42 45 46 45 51 57 66 68 72 76 80 73 86 87 101 102 108 107 100 112 113 113 116 110 106
97 102 96 87 97 92 79 74 60 48 51 31 25 23 21 24 24 17 38 35 37 42 40 40 48 53 59 63 73 73 74 60 83 81 91 92 103 103 108 102 113 115 113 113 113
91 96 104 96 97 95 82 58 62 47 39 27 21 19 19 21 21 20 28 35 36 41 39 38 42 46 52 59 62 71 74 74 84 65 76 91 84 93 96 97 108 108 112 107 116
110 96 97 102 95 94 74 48 43 40 32 28 20 17 15 18 21 20 24 36 37 38 36 36 33 36 39 46 58 65 69 71 65 59 57 62 85 91 87 92 107 102 108 103 100
104 107 98 105 98 92 73 45 39 40 29 24 20 17 13 17 18 24 26 34 36 38 37 36 34 38 39 44 44 58 64 64 71 73 69 59 71 61 67 72 74 77 81 94 97
105 106 104 103 98 92 63 50 45 39 29 25 19 17 17 12 15 25 23 28 37 40 42 39 34 35 37 39 43 43 48 55 57 55 70 74 78 69 60 61 66 66 66 94 68
109 100 102 107 99 88 57 46 44 37 29 23 19 21 14 7 10 21 27 28 32 38 40 39 35 35 35 35 34 36 42 41 46 46 50 58 68 77 70 55 58 66 63 70 71
107 116 106 79 89 86 51 47 40 36 31 25 20 13 14 13 4 14 29 28 30 39 41 37 42 36 35 31 31 33 36 37 40 36 45 49 43 47 53 66 68 68 69 73 68
113 109 111 104 87 84 50 46 40 32 29 25 22 17 18 17 19 23 29 29 29 36 38 42 45 44 36 37 34 34 33 34 34 36 36 38 41 44 47 47 43 45 61 53 42
112 98 104 105 86 74 51 48 38 26 27 23 17 24 27 26 28 27 28 34 32 32 33 42 43 45 42 37 35 32 34 35 36 35 36 37 38 40 39 37 37 38 36 34 35
113 98 104 97 86 70 57 47 37 24 27 22 13 22 28 30 29 29 25 25 32 34 35 38 40 42 43 43 41 39 35 34 34 34 34 33 35 34 33 32 31 31 29 29 31
113 98 107 86 90 60 61 25 21 21 25 22 19 22 31 34 34 30 29 29 26 38 36 35 34 38 41 41 40 42 32 33 31 29 25 31 30 28 26 21 24 26 28 30 26
109 109 106 88 87 66 50 34 16 21 23 20 21 27 43 30 37 38 25 23 31 31 31 33 30 33 39 39 38 35 30 29 28 26 28 26 26 15 21 23 21 22 21 23 19
103 113 97 90 70 28 25 17 14 23 21 16 20 25 29 32 37 34 27 26 24 20 24 19 28 27 34 39 38 36 32 36 32 28 24 19 16 21 21 17 17 17 17 16 17
Wind_Direction
295 290 294 289 284 285 280 279 276 275 274 273 272 264 262 263 263 255 257 257 248 253 255 251 246 245 248 246 244 245 244 246 246 245 242 239 239 239 241 241 238 236 241 235 240
293 290 294 283 285 284 283 280 282 280 278 280 279 278 278 273 264 263 262 259 251 252 252 248 253 246 242 243 245 246 245 246 245 246 243 239 240 239 239 240 242 242 241 241 234
299 295 287 292 288 285 285 282 281 285 282 281 285 286 276 273 270 263 259 258 251 252 244 252 246 248 248 246 244 246 246 245 245 244 243 239 238 240 239 241 244 243 240 238 241
292 292 288 293 292 291 289 289 290 293 293 292 290 289 285 275 271 262 257 254 254 250 244 243 239 241 242 249 247 239 243 242 245 242 241 242 240 237 238 240 241 242 243 242 245
296 293 294 291 298 291 291 290 293 294 294 295 291 288 290 283 276 263 259 249 253 250 246 242 243 242 244 241 248 243 241 243 242 240 243 238 240 240 238 238 241 242 242 244 245
298 297 292 296 294 290 295 297 296 297 297 289 289 284 288 278 270 267 259 251 250 245 244 243 240 238 249 248 235 245 249 244 242 240 241 242 236 238 244 237 237 240 245 246 244
298 297 299 300 297 298 299 310 300 299 295 291 291 292 286 275 269 266 262 254 250 245 243 246 240 238 240 243 235 245 236 250 248 245 242 240 241 234 236 239 241 240 236 243 245
301 300 300 301 299 303 308 305 302 299 294 289 284 281 278 272 267 263 259 254 249 245 243 242 246 240 238 243 240 235 234 243 233 246 245 240 239 241 241 239 236 238 236 234 236
304 301 303 300 307 306 311 315 303 301 296 291 290 292 288 281 272 263 253 250 248 245 244 242 238 236 237 236 239 240 239 231 237 238 243 242 243 241 245 242 243 235 240 240 239
307 305 312 320 313 315 320 307 312 307 303 298 294 290 288 280 270 260 253 242 246 243 243 242 239 235 235 240 234 239 230 238 235 242 237 244 243 236 247 242 242 242 236 237 239
306 305 328 321 327 315 318 321 317 312 308 295 295 293 288 281 274 258 248 246 240 239 241 239 238 235 238 235 234 234 238 244 243 234 233 231 242 242 248 239 245 244 239 237 237
309 324 328 320 330 324 328 324 320 318 298 302 299 297 279 282 276 256 244 244 237 240 236 227 235 234 233 231 234 235 235 231 236 239 237 234 236 235 240 238 241 244 245 244 238
323 329 328 330 324 328 330 326 325 319 316 310 300 287 275 274 268 247 246 241 236 236 235 226 223 235 232 232 234 236 229 234 235 236 238 234 235 246 242 240 237 246 241 245 243
326 330 333 321 332 332 331 328 323 320 320 312 297 287 278 270 260 253 220 239 230 234 235 223 223 225 234 233 230 228 229 232 231 233 241 241 233 238 234 239 237 239 239 244 246
327 332 329 331 335 335 333 329 325 323 318 316 303 287 272 265 265 207 245 235 235 235 233 225 225 226 230 232 227 229 228 232 230 233 234 235 234 245 235 236 238 238 240 243 245
330 330 335 334 336 336 333 327 329 325 323 321 305 286 266 259 260 255 226 228 233 231 231 229 226 226 229 228 231 230 227 229 234 232 234 239 237 232 236 238 238 237 240 243 242
329 329 331 332 336 336 334 328 324 326 323 316 312 295 278 258 250 243 229 226 225 229 232 232 215 219 219 224 226 230 229 228 229 232 231 234 234 237 240 243 241 241 241 245 242
330 330 331 333 337 336 337 330 326 326 323 315 310 298 283 262 250 243 238 222 222 223 229 226 219 218 219 222 222 228 231 233 229 229 230 235 232 240 242 243 245 246 245 240 242
330 331 332 334 335 335 337 334 329 325 320 312 306 288 277 259 239 224 232 230 216 219 220 224 222 217 218 220 222 223 226 230 232 232 230 231 233 235 240 241 245 246 247 241 243
328 331 332 334 335 335 335 334 329 325 319 309 298 289 260 224 242 219 213 221 216 213 219 219 220 217 216 218 218 219 224 224 228 230 234 233 233 235 237 241 242 242 244 243 244
328 329 331 326 335 336 332 331 325 321 317 310 298 214 215 221 233 176 213 214 208 210 215 217 218 214 217 214 212 213 217 221 227 226 232 232 233 238 239 237 237 238 241 243 244
326 329 336 335 336 336 331 330 325 315 313 309 299 194 194 175 172 186 203 212 211 210 212 212 216 219 214 218 218 220 218 219 222 223 226 230 233 238 241 244 248 250 248 249 254
325 330 330 336 336 334 333 329 325 313 310 306 291 190 180 188 178 194 197 210 216 212 206 211 214 219 218 215 217 219 222 222 223 225 228 230 235 239 245 250 251 253 255 254 250
324 330 330 335 335 334 334 328 321 306 307 300 230 206 208 199 198 206 186 194 211 214 212 215 213 217 220 220 219 218 219 222 225 227 231 234 239 243 247 251 252 251 247 244 246
323 331 332 336 334 335 332 313 306 300 303 297 220 201 215 201 201 208 207 208 200 208 217 221 215 210 215 218 219 219 219 220 223 228 228 235 236 243 245 241 240 238 237 232 237
324 331 332 334 333 333 327 318 297 302 299 296 213 209 205 220 207 201 213 207 205 209 207 216 223 215 209 211 212 215 215 217 219 220 227 230 236 228 223 227 240 241 232 228 232
324 334 332 333 334 320 314 298 293 305 300 218 218 215 211 221 212 216 213 207 197 191 184 207 203 217 214 210 208 206 209 206 209 210 217 222 213 207 217 223 225 216 209 199 159